STARLINK-6323, 56524

Orbit data source: Space-Track

STARLINK-6323, 56524 is a payload satellite owned by SpaceX/Seattle (US) in LEO that was launched on Sun, 14 May 2023 UTC via an FALCON 9 launch vehicle from the Air Force Eastern Test Range (AFETR). Payload-class satellites include a variety of spacecraft equipped with specific instruments for various scientific and technological missions. These include communications satellites like Starlink; space stations such as the ISS; scientific satellites like the Hubble; Earth observation satellites from companies like Planet Labs, Umbra, and HawkEye 360; GPS; miniature CubeSats for education and research; and military/defense satellites.

Loading next visibility...
Identifier
56524, 2023-065X
Orbit
LEO
Country
Flag of USUS
Related business
Manufacturer
SpaceX/Seattle
Mission
Operational Commercial Communications
Bus & Motor
STARLINK, Unknown motor
Mass
305 kg wet, ~290 kg dry
Launch date (UTC)
2023-05-14 (3 years ago)
Launch vehicle
FALCON 9
Launch site
Air Force Eastern Test Range (AFETR)
Object type
Payload
Rocket body
Debris
Shape & HBR
Box + 1 Pan, 10.1 m
Radar Cross Section
11.087 m², Large (>1 m²)

Expand to show TLE details & history
Last TLE update: 3 days ago

TLE from 3 days ago
0 STARLINK-6323
1 56524U 23065X   26170.54753250  .00000229  00000-0  17854-4 0  9997
2 56524  43.0029 357.5714 0001177 263.9708  96.1009 15.27578107172171
Epoch: 2026-06-19T13:08Z
TLE epoch observation values (Epoch: 2026-06-19T13:08:26.807Z)
Latitude
-0.00008°
Longitude
-107.31532°
Altitude
482.916 km
Speed
7.626 km/s
True Right ascension
23h 50m 17s
True Declination
0° 00' 00"
Sunlit
Object was in daylight at epoch
Visualization orbit readout
Latitude
Unknown
Longitude
Unknown
Altitude
Unknown
Speed
Unknown
Apparent Right ascension
Unknown
Apparent Declination
Unknown
Sunlit
N/A
Visualization observer readout
Local Sidereal Time
21:25:56
Azimuth
Unknown
Elevation
Unknown
Doppler factor
Unknown
Orbital elements
Apogee altitude
485.807 km
Perigee altitude
484.192 km
Semi-major axis
6,863.136 km
Eccentricity
0.00012
Inclination
43.0029°
RAAN
357.5714°
Arg. of periapsis
263.9708°
True anomaly
96.11431°
Mean anomaly
96.1009°
Eccentric anomaly
96.10761°
Mean motion
3.81733 °/min
Orbital period
94.31 mins
BSTAR
0.000017854
Loading maneuver chart data...
Computing Atmospheric mass density...
Loading historical data...
Loading historical data...
Loading historical data...
Loading historical data...
Loading historical data...
Loading historical data...
Loading historical data...

Documentation

Showing up to 5 results
|